This is the latest recevied weather packets stored in our database for station/object N5LSN. If no packets are shown the sender has not sent any weather packets the latest 10 day(s).
| Time | Temp. | Humidity | Pressure | Rain* | Wind** | Luminosity | Snow |
|---|---|---|---|---|---|---|---|
| 1777837271 | 25° C | 44% | 1018.6 hPa | 0 mm | - | 865 W/m² | - |
| 1777836968 | 25° C | 45% | 1018.6 hPa | 0 mm | - | 876 W/m² | - |
| 1777836663 | 25° C | 42% | 1018.6 hPa | 0 mm | - | 887 W/m² | - |
| 1777836359 | 24.44° C | 43% | 1018.8 hPa | 0 mm | - | 901 W/m² | - |
| 1777836055 | 25.56° C | 42% | 1019 hPa | 0 mm | - | 862 W/m² | - |
| 1777835752 | 24.44° C | 43% | 1018.9 hPa | 0 mm | - | 913 W/m² | - |
| 1777835448 | 25° C | 43% | 1019.1 hPa | 0 mm | - | 920 W/m² | - |
| 1777835139 | 24.44° C | 43% | 1019.1 hPa | 0 mm | - | 927 W/m² | - |
| 1777834836 | 23.89° C | 44% | 1019.2 hPa | 0 mm | - | 932 W/m² | - |
| 1777834533 | 23.89° C | 44% | 1019.3 hPa | 0 mm | - | 937 W/m² | - |
| 1777834227 | 23.89° C | 44% | 1019.4 hPa | 0 mm | - | 943 W/m² | - |
| 1777833924 | 23.89° C | 43% | 1019.7 hPa | 0 mm | - | 946 W/m² | - |
| 1777833620 | 23.89° C | 44% | 1019.8 hPa | 0 mm | - | 946 W/m² | - |
| 1777833317 | 23.89° C | 43% | 1019.6 hPa | 0 mm | - | 950 W/m² | - |
| 1777833014 | 23.89° C | 45% | 1019.8 hPa | 0 mm | - | 953 W/m² | - |
| 1777832712 | 23.89° C | 43% | 1019.8 hPa | 0 mm | - | 955 W/m² | - |
| 1777832410 | 23.89° C | 49% | 1019.9 hPa | 0 mm | - | 957 W/m² | - |
| 1777832107 | 23.33° C | 42% | 1020 hPa | 0 mm | - | 960 W/m² | - |
| 1777831803 | 23.89° C | 45% | 1020.2 hPa | 0 mm | - | 960 W/m² | - |
| 1777831500 | 23.33° C | 45% | 1020.3 hPa | 0 mm | - | 961 W/m² | - |
| 1777831197 | 23.89° C | 48% | 1020.2 hPa | 0 mm | - | 962 W/m² | - |
| 1777830895 | 23.89° C | 46% | 1020.4 hPa | 0 mm | - | 961 W/m² | - |
| 1777830591 | 22.78° C | 46% | 1020.5 hPa | 0 mm | - | 964 W/m² | - |
| 1777830289 | 22.78° C | 48% | 1020.6 hPa | 0 mm | - | 960 W/m² | - |
| 1777829984 | 22.78° C | 48% | 1020.6 hPa | 0 mm | - | 958 W/m² | - |
* Rain latest hour (hover to see other rain measurements)
** Current wind speed in m/s (hover to see current wind gust speed)